FW8046 Weather Reports


time (UTC)temp
F
wind
direction
speed
knots
gust
knots
rain 1hr
in
rain 24hr
in
rain mn
in
humidity
%
barometer
mb
20260510095153 64 348 0.9 1.7 0.00 0.00 0.00 80 1016.1
20260510094651 65 345 0.9 0.9 0.00 0.00 0.00 79 1016.1
20260510094148 65 347 0.0 0.9 0.00 0.00 0.00 79 1015.9
20260510093644 65 345 0.0 0.0 0.00 0.00 0.00 79 1015.7
20260510093141 65 349 0.0 0.0 0.00 0.00 0.00 78 1015.6
20260510092638 66 342 0.0 0.0 0.00 0.00 0.00 78 1015.5
20260510092133 66 336 0.0 0.0 0.00 0.00 0.00 78 1015.2
20260510091629 66 347 0.0 0.0 0.00 0.00 0.00 78 1015.3
20260510091125 66 346 0.0 0.9 0.00 0.00 0.00 77 1014.9
20260510090623 66 348 0.0 0.9 0.00 0.00 0.00 76 1014.6
20260510090119 66 347 0.0 0.0 0.00 0.00 0.00 76 1014.7
20260510085614 65 346 0.0 0.9 0.00 0.00 0.00 75 1015.0
20260510085109 65 349 0.0 0.9 0.00 0.00 0.00 75 1014.6
20260510084606 66 348 0.0 0.0 0.00 0.00 0.00 74 1014.4
20260510084103 66 354 0.0 0.0 0.00 0.00 0.00 73 1014.6
20260510083559 66 347 0.0 0.0 0.00 0.00 0.00 72 1014.6
20260510083055 66 347 0.0 0.9 0.00 0.00 0.00 72 1014.6
20260510082553 65 345 0.0 0.0 0.00 0.00 0.00 72 1014.5
20260510082048 65 324 0.0 0.9 0.00 0.00 0.00 71 1014.5
20260510081543 64 343 0.0 0.0 0.00 0.00 0.00 72 1014.6
20260510081039 64 355 0.0 0.0 0.00 0.00 0.00 74 1015.2
20260510080538 63 347 0.0 0.0 0.00 0.00 0.00 77 1015.2
20260510080035 63 356 0.0 0.0 0.00 0.00 0.00 78 1015.0
20260510075533 62 354 0.0 0.0 0.00 0.00 0.00 78 1014.7
20260510075030 62 348 0.0 0.0 0.00 0.00 0.00 80 1014.5
20260510074527 62 343 0.0 0.0 0.00 0.00 0.00 82 1014.6
20260510074022 62 346 0.0 0.0 0.00 0.00 0.00 82 1014.9
20260510073519 62 347 0.0 0.0 0.00 0.00 0.00 82 1014.7
20260510073016 62 347 0.0 0.0 0.00 0.00 0.00 82 1014.5
20260510072512 61 347 0.0 0.0 0.00 0.00 0.00 82 1014.9
20260510072008 62 343 0.0 0.0 0.00 0.00 0.00 83 1014.9
20260510071504 61 347 0.0 0.0 0.00 0.00 0.00 83 1014.6
20260510071003 61 344 0.0 0.0 0.00 0.00 0.00 84 1014.9
20260510070459 62 346 0.0 0.0 0.00 0.00 0.00 83 1015.0
20260510065955 62 347 0.0 0.0 0.00 0.00 0.00 83 1015.0
20260510065452 62 346 0.0 0.0 0.00 0.00 0.00 82 1015.3
20260510064948 62 347 0.0 0.0 0.00 0.00 0.00 81 1015.1
20260510064446 62 347 0.0 0.0 0.00 0.00 0.00 81 1015.3
20260510063942 63 2 0.0 0.0 0.00 0.00 0.00 81 1015.5
20260510063438 63 351 0.0 0.0 0.00 0.00 0.00 80 1015.5
20260510062936 63 347 0.0 0.0 0.00 0.00 0.00 80 1015.6
20260510062431 63 347 0.0 0.0 0.00 0.00 0.00 80 1015.7
20260510061926 63 351 0.0 0.0 0.00 0.00 0.00 79 1015.8
20260510061423 63 343 0.0 0.0 0.00 0.00 0.00 80 1015.6
20260510060919 62 342 0.0 0.0 0.00 0.00 0.00 80 1015.8
20260510060416 62 343 0.0 0.0 0.00 0.00 0.00 80 1015.8
20260510055913 62 347 0.0 0.0 0.00 0.00 0.00 80 1015.8
20260510055408 62 343 0.0 0.0 0.00 0.00 0.00 82 1015.7
20260510054906 62 343 0.0 0.0 0.00 0.00 0.00 82 1015.8
20260510054402 61 347 0.0 0.0 0.00 0.00 0.00 82 1015.5
20260510053857 61 347 0.0 0.0 0.00 0.00 0.00 82 1015.4
20260510053353 61 345 0.0 0.0 0.00 0.00 0.00 83 1015.4
20260510052849 61 346 0.0 0.0 0.00 0.00 0.00 83 1015.4
20260510052345 61 345 0.0 0.0 0.00 0.00 0.00 82 1015.6
20260510051841 61 347 0.0 0.0 0.00 0.00 0.00 83 1015.3
20260510051338 61 351 0.0 0.0 0.00 0.00 0.00 82 1015.5
20260510050835 61 347 0.0 0.0 0.00 0.00 0.00 82 1015.2
20260510050332 61 347 0.0 0.0 0.00 0.00 0.00 81 1015.2
20260510045829 61 347 0.0 0.0 0.00 0.00 0.00 81 1015.1
20260510045326 61 346 0.0 0.0 0.00 0.00 0.00 80 1015.2
20260510044823 61 347 0.0 0.0 0.00 0.00 0.00 81 1015.2
20260510044320 61 348 0.0 0.0 0.00 0.00 0.00 80 1014.9
20260510043816 61 347 0.0 0.0 0.00 0.00 0.00 80 1014.9
20260510043312 61 347 0.0 0.0 0.00 0.00 0.00 80 1015.1
20260510042810 62 348 0.0 0.0 0.00 0.00 0.00 79 1015.0
20260510042307 62 348 0.0 0.0 0.00 0.00 0.00 79 1015.3
20260510041803 62 352 0.0 0.0 0.00 0.00 0.00 78 1015.1
20260510041300 62 346 0.0 0.0 0.00 0.00 0.00 78 1015.1
20260510040757 62 348 0.0 0.0 0.00 0.00 0.00 77 1015.1
20260510040254 62 353 0.0 0.0 0.00 0.00 0.00 77 1015.2
20260510035749 63 345 0.0 0.0 0.00 0.00 0.00 75 1015.1
20260510035244 63 346 0.0 0.0 0.00 0.00 0.00 74 1015.1
20260510034740 63 343 0.0 0.0 0.00 0.00 0.00 73 1014.7
20260510034239 63 342 0.0 0.0 0.00 0.00 0.00 73 1014.9
20260510033734 63 342 0.0 0.9 0.00 0.00 0.00 72 1014.6
20260510033232 63 348 0.0 0.0 0.00 0.00 0.00 72 1014.1
20260510032729 63 347 0.0 0.0 0.00 0.00 0.00 71 1014.0
20260510032225 63 346 0.0 0.0 0.00 0.00 0.00 70 1014.4
20260510031720 64 346 0.0 0.0 0.00 0.00 0.00 69 1014.0
20260510031216 64 347 0.0 0.0 0.00 0.00 0.00 69 1014.0
20260510030715 64 347 0.0 0.0 0.00 0.00 0.00 69 1013.9
20260510030213 64 345 0.0 0.0 0.00 0.00 0.00 69 1013.9
20260510025711 65 347 0.0 0.0 0.00 0.00 0.00 68 1013.8
20260510025208 65 347 0.0 0.0 0.00 0.00 0.00 67 1013.8
20260510024705 65 346 0.0 0.0 0.00 0.00 0.00 65 1013.8
20260510024201 66 346 0.0 0.0 0.00 0.00 0.00 64 1013.5
20260510023657 66 348 0.0 0.0 0.00 0.00 0.00 64 1013.5
20260510023154 66 345 0.0 0.0 0.00 0.00 0.00 62 1013.5
20260510022649 67 347 0.0 0.0 0.00 0.00 0.00 63 1013.2
20260510022144 67 343 0.0 0.0 0.00 0.00 0.00 60 1013.1
20260510021640 67 346 0.0 0.0 0.00 0.00 0.00 60 1013.0
20260510021137 68 344 0.0 0.0 0.00 0.00 0.00 60 1013.0
20260510020632 68 344 0.0 0.0 0.00 0.00 0.00 59 1012.7
20260510020127 69 347 0.0 0.0 0.00 0.00 0.00 59 1012.9
20260510015624 69 347 0.0 0.0 0.00 0.00 0.00 57 1012.6
20260510015120 69 345 0.0 0.0 0.00 0.00 0.00 55 1012.6
20260510014615 70 346 0.0 0.0 0.00 0.00 0.00 55 1012.6
20260510014108 71 347 0.0 0.0 0.00 0.00 0.00 53 1012.4
20260510013602 71 348 0.0 0.0 0.00 0.00 0.00 52 1012.2
20260510013058 72 346 0.0 0.0 0.00 0.00 0.00 50 1012.2
20260510012557 73 347 0.0 0.0 0.00 0.00 0.00 50 1012.4
20260510012054 73 344 0.0 0.0 0.00 0.00 0.00 47 1012.0
20260510011553 74 346 0.0 0.0 0.00 0.00 0.00 47 1011.9
20260510011050 74 348 0.0 0.0 0.00 0.00 0.00 45 1012.0
20260510010546 75 343 0.0 0.0 0.00 0.00 0.00 44 1012.3
20260510010044 75 347 0.0 0.0 0.00 0.00 0.00 44 1011.9
20260510005539 76 346 0.0 0.0 0.00 0.00 0.00 44 1011.6
20260510005037 76 345 0.0 0.0 0.00 0.00 0.00 43 1011.9
20260510004534 77 347 0.0 0.9 0.00 0.00 0.00 43 1011.7
20260510004032 77 358 0.0 0.9 0.00 0.00 0.00 42 1011.8
20260510003528 78 339 0.0 0.9 0.00 0.00 0.00 41 1011.7
20260510003024 78 58 0.0 0.9 0.00 0.00 0.00 41 1011.8
20260510002520 79 349 0.0 0.9 0.00 0.00 0.00 41 1011.8
20260510002017 79 7 0.0 0.9 0.00 0.00 0.00 41 1011.9
20260510001514 79 358 0.0 0.9 0.00 0.00 0.00 40 1011.8
20260510001012 79 341 0.0 0.9 0.00 0.00 0.00 40 1011.8
20260510000512 80 351 0.0 0.9 0.00 0.00 0.00 40 1011.8
20260510000009 80 347 0.0 0.9 0.00 0.00 0.00 41 1011.9
20260509235507 81 346 0.0 0.0 0.00 0.00 0.00 39 1011.8
20260509235003 81 344 0.0 0.9 0.00 0.00 0.00 39 1011.8
20260509234500 80 344 0.0 1.7 0.00 0.00 0.00 39 1011.8
20260509233958 82 326 0.9 1.7 0.00 0.00 0.00 38 1011.8
20260509233454 82 346 0.9 1.7 0.00 0.00 0.00 37 1012.2
20260509232950 83 344 0.0 0.9 0.00 0.00 0.00 39 1011.8
20260509232448 82 338 0.0 0.9 0.00 0.00 0.00 39 1011.9
20260509231944 82 346 0.0 1.7 0.00 0.00 0.00 38 1011.8
20260509231441 83 351 0.0 1.7 0.00 0.00 0.00 38 1012.0
20260509230939 84 344 0.0 0.9 0.00 0.00 0.00 38 1011.9
20260509230436 85 342 0.0 1.7 0.00 0.00 0.00 37 1011.9
20260509225932 84 335 0.9 2.6 0.00 0.00 0.00 37 1011.9
20260509225428 84 341 0.0 2.6 0.00 0.00 0.00 37 1011.8
20260509224925 83 338 0.0 2.6 0.00 0.00 0.00 38 1011.8
20260509224420 82 223 2.6 5.2 0.00 0.00 0.00 38 1011.9
20260509223917 84 341 0.9 2.6 0.00 0.00 0.00 38 1012.0
20260509223414 82 343 0.9 4.3 0.00 0.00 0.00 37 1012.2
20260509222911 83 341 0.0 0.9 0.00 0.00 0.00 37 1012.2
20260509222407 84 343 0.9 2.6 0.00 0.00 0.00 38 1012.0
20260509221902 84 305 1.7 2.6 0.00 0.00 0.00 37 1011.9
20260509221400 84 340 0.0 2.6 0.00 0.00 0.00 36 1012.3
20260509220855 85 320 0.9 0.9 0.00 0.00 0.00 35 1012.0
20260509220351 86 332 0.0 0.9 0.00 0.00 0.00 34 1011.8
20260509215846 85 342 0.0 0.9 0.00 0.00 0.00 34 1012.0
20260509215344 84 349 0.0 0.9 0.00 0.00 0.00 37 1012.0
20260509214840 85 355 0.9 1.7 0.00 0.00 0.00 36 1011.9
20260509214338 85 341 0.9 0.9 0.00 0.00 0.00 35 1011.9
20260509213835 83 330 0.9 1.7 0.00 0.00 0.00 36 1012.0
20260509213330 85 340 0.9 1.7 0.00 0.00 0.00 35 1012.2
20260509212828 85 42 0.0 1.7 0.00 0.00 0.00 37 1012.0
20260509212326 84 347 0.9 1.7 0.00 0.00 0.00 37 1012.0
20260509211821 84 341 0.0 1.7 0.00 0.00 0.00 37 1012.2
20260509211317 82 354 0.0 0.9 0.00 0.00 0.00 38 1012.4
20260509210814 82 340 0.0 0.9 0.00 0.00 0.00 39 1012.6
20260509210312 82 54 0.0 0.9 0.00 0.00 0.00 39 1012.4
20260509205811 81 344 0.0 0.9 0.00 0.00 0.00 41 1012.6
20260509205307 82 341 0.0 0.9 0.00 0.00 0.00 40 1012.7
20260509204802 82 337 0.0 0.9 0.00 0.00 0.00 39 1012.8
20260509204258 83 341 0.0 0.9 0.00 0.00 0.00 40 1012.8
20260509203755 83 124 0.9 1.7 0.00 0.00 0.00 38 1012.7
20260509203252 82 357 0.9 1.7 0.00 0.00 0.00 38 1012.6
20260509202748 83 357 0.0 0.0 0.00 0.00 0.00 38 1012.8
20260509202239 82 343 0.9 0.9 0.00 0.00 0.00 38 1012.8
20260509201738 82 340 0.0 0.9 0.00 0.00 0.00 40 1012.8
20260509201236 82 354 0.0 0.9 0.00 0.00 0.00 40 1013.1
20260509200732 83 353 0.9 0.9 0.00 0.00 0.00 41 1012.9
20260509200227 82 341 0.9 0.9 0.00 0.00 0.00 38 1012.9
20260509195723 82 355 0.9 0.9 0.00 0.00 0.00 40 1012.8
20260509195218 83 357 0.0 1.7 0.00 0.00 0.00 40 1012.9
20260509194713 84 5 0.0 0.9 0.00 0.00 0.00 38 1013.0
20260509194210 84 79 1.7 2.6 0.00 0.00 0.00 38 1012.9
20260509193707 83 80 0.9 1.7 0.00 0.00 0.00 39 1012.9
20260509193206 84 341 0.0 0.9 0.00 0.00 0.00 38 1013.2
20260509192703 83 317 0.9 1.7 0.00 0.00 0.00 40 1013.0
20260509192158 83 334 0.0 0.9 0.00 0.00 0.00 40 1013.1
20260509191654 82 250 3.5 5.2 0.00 0.00 0.00 40 1013.3
20260509191150 82 341 0.0 0.9 0.00 0.00 0.00 44 1013.5
20260509190646 82 346 0.0 1.7 0.00 0.00 0.00 42 1013.3
20260509190144 81 339 0.9 2.6 0.00 0.00 0.00 42 1013.4
20260509185642 82 294 0.9 4.3 0.00 0.00 0.00 41 1013.2
20260509185137 82 339 0.0 1.7 0.00 0.00 0.00 43 1013.3
20260509184635 82 313 1.7 4.3 0.00 0.00 0.00 40 1013.1
20260509184132 82 47 0.9 0.9 0.00 0.00 0.00 40 1013.2
20260509183628 83 304 2.6 4.3 0.00 0.00 0.00 39 1013.4
20260509183123 82 331 0.9 2.6 0.00 0.00 0.00 42 1013.3
20260509182620 81 36 0.9 2.6 0.00 0.00 0.00 42 1013.6
20260509182117 82 324 0.0 1.7 0.00 0.00 0.00 45 1013.3
20260509181615 81 333 0.9 1.7 0.00 0.00 0.00 43 1013.6
20260509181112 82 347 0.0 1.7 0.00 0.00 0.00 45 1013.5
20260509180608 82 2 0.9 0.9 0.00 0.00 0.00 45 1013.4
20260509180105 82 335 0.9 1.7 0.00 0.00 0.00 46 1013.6
20260509175601 80 341 0.0 0.9 0.00 0.00 0.00 45 1013.4
20260509175058 79 340 0.0 4.3 0.00 0.00 0.00 46 1013.6
20260509174554 80 340 1.7 1.7 0.00 0.00 0.00 45 1013.7
20260509174049 80 338 1.7 2.6 0.00 0.00 0.00 44 1013.6
20260509173544 80 344 0.9 4.3 0.00 0.00 0.00 43 1013.8
20260509173040 80 313 1.7 4.3 0.00 0.00 0.00 44 1013.7
20260509172538 80 262 2.6 2.6 0.00 0.00 0.00 48 1013.8
20260509172033 81 329 1.7 1.7 0.00 0.00 0.00 50 1013.9
20260509171529 80 340 0.0 0.9 0.00 0.00 0.00 50 1013.8
20260509171026 79 333 0.9 2.6 0.00 0.00 0.00 52 1014.0
20260509170522 80 344 0.0 0.9 0.00 0.00 0.00 51 1013.5
20260509170018 80 347 0.0 0.9 0.00 0.00 0.00 52 1013.6
20260509165516 79 337 0.9 1.7 0.00 0.00 0.00 49 1013.6
20260509165012 78 13 0.0 0.9 0.00 0.00 0.00 51 1013.5
20260509164509 78 17 0.0 1.7 0.00 0.00 0.00 51 1013.6
20260509164004 78 342 0.9 0.9 0.00 0.00 0.00 59 1013.7
20260509163502 77 343 0.9 0.9 0.00 0.00 0.00 57 1013.9
20260509163001 77 349 1.7 2.6 0.00 0.00 0.00 55 1013.9
20260509162500 78 345 0.0 1.7 0.00 0.00 0.00 60 1013.7
20260509161955 77 343 0.0 1.7 0.00 0.00 0.00 59 1013.7
20260509161452 78 330 1.7 2.6 0.00 0.00 0.00 60 1013.7
20260509160947 77 325 0.0 1.7 0.00 0.00 0.00 60 1013.7
20260509160444 77 307 0.0 2.6 0.00 0.00 0.00 61 1013.8
20260509155938 74 343 0.0 2.6 0.00 0.00 0.00 64 1013.8
20260509155435 75 281 2.6 2.6 0.00 0.00 0.00 63 1013.7
20260509154932 74 331 0.9 1.7 0.00 0.00 0.00 64 1013.9
20260509154428 75 304 3.5 5.2 0.00 0.00 0.00 63 1013.7
20260509153926 73 346 0.0 2.6 0.00 0.00 0.00 67 1013.9
20260509153422 75 259 1.7 2.6 0.00 0.00 0.00 64 1014.0
20260509152920 74 349 0.0 0.9 0.00 0.00 0.00 69 1013.9
20260509152415 74 344 0.9 0.9 0.00 0.00 0.00 65 1013.9
20260509151912 74 359 0.0 0.9 0.00 0.00 0.00 68 1013.9
20260509151408 73 346 0.0 0.9 0.00 0.00 0.00 72 1013.9
20260509150907 72 348 0.9 4.3 0.00 0.00 0.00 70 1013.8
20260509150404 73 0 0.0 0.0 0.00 0.00 0.00 72 1013.7
20260509145902 72 347 0.0 1.7 0.00 0.00 0.00 71 1013.9
20260509145401 72 343 0.9 2.6 0.00 0.00 0.00 70 1013.7
20260509144858 71 348 0.0 0.0 0.00 0.00 0.00 73 1013.8
20260509144355 70 354 1.7 2.6 0.00 0.00 0.00 72 1013.7
20260509143852 70 9 0.0 0.9 0.00 0.00 0.00 74 1013.8
20260509143349 68 252 2.6 4.3 0.00 0.00 0.00 75 1013.7
20260509142845 69 323 1.7 2.6 0.00 0.00 0.00 74 1013.6
20260509142342 70 346 1.7 2.6 0.00 0.00 0.00 72 1013.7
20260509141837 71 347 0.0 1.7 0.00 0.00 0.00 74 1013.7
20260509141335 71 350 0.0 0.9 0.00 0.00 0.00 72 1013.9
20260509140831 70 346 0.0 0.9 0.00 0.00 0.00 75 1013.7
20260509140328 69 342 0.0 0.0 0.00 0.00 0.00 74 1013.6
20260509135826 68 348 0.0 0.9 0.00 0.00 0.00 77 1013.5
20260509135323 69 340 0.0 4.3 0.00 0.00 0.00 76 1013.4
20260509134821 67 346 0.0 0.0 0.00 0.00 0.00 77 1013.3
20260509134318 67 341 0.9 1.7 0.00 0.00 0.00 78 1013.4
20260509133815 67 339 0.0 0.9 0.00 0.00 0.00 77 1013.3
20260509133311 68 345 0.0 0.0 0.00 0.00 0.00 75 1013.2
20260509132810 68 344 0.0 0.0 0.00 0.00 0.00 75 1013.2
20260509132308 67 346 0.0 0.0 0.00 0.00 0.00 75 1013.3
20260509131804 66 5 0.0 0.0 0.00 0.00 0.00 77 1013.1
20260509131301 66 352 0.0 0.0 0.00 0.00 0.00 78 1013.0
20260509130757 65 345 0.0 0.9 0.00 0.00 0.00 79 1013.1
20260509130253 64 346 0.0 0.0 0.00 0.00 0.00 81 1013.1
20260509125750 64 347 0.0 0.0 0.00 0.00 0.00 81 1013.2
20260509125247 63 346 0.0 0.0 0.00 0.00 0.00 80 1013.2
20260509124743 63 346 0.0 0.0 0.00 0.00 0.00 78 1012.9
20260509124240 63 346 0.0 0.0 0.00 0.00 0.00 79 1012.9
20260509123738 62 346 0.0 0.0 0.00 0.00 0.00 80 1013.0
20260509123235 59 346 0.0 0.0 0.00 0.00 0.00 87 1013.2
20260509122731 56 346 0.0 0.0 0.00 0.00 0.00 92 1013.0
20260509122227 56 346 0.0 0.0 0.00 0.00 0.00 94 1013.0
20260509121724 55 346 0.0 0.0 0.00 0.00 0.00 95 1012.7
20260509121222 54 346 0.0 0.0 0.00 0.00 0.00 96 1012.7
20260509120720 52 346 0.0 0.0 0.00 0.00 0.00 96 1013.0
20260509120218 51 346 0.0 0.0 0.00 0.00 0.00 96 1012.7
20260509115715 51 346 0.0 0.0 0.00 0.00 0.00 96 1012.8
20260509115212 51 346 0.0 0.0 0.00 0.00 0.00 96 1012.6
20260509114711 51 346 0.0 0.0 0.00 0.00 0.00 96 1012.7
20260509114209 50 346 0.0 0.0 0.00 0.00 0.00 96 1012.8
20260509113707 50 346 0.0 0.0 0.00 0.00 0.00 96 1012.5
20260509113204 50 345 0.0 0.0 0.00 0.00 0.00 95 1012.5
20260509112701 50 346 0.0 0.0 0.00 0.00 0.00 95 1012.4
20260509112158 50 350 0.0 0.0 0.00 0.00 0.00 96 1012.4
20260509111655 50 345 0.0 0.0 0.00 0.00 0.00 95 1012.4
20260509111151 50 346 0.0 0.0 0.00 0.00 0.00 95 1012.3
20260509110649 50 345 0.0 0.0 0.00 0.00 0.00 95 1012.3
20260509110146 51 342 0.0 0.0 0.00 0.00 0.00 95 1012.5
20260509105644 50 342 0.0 0.0 0.00 0.00 0.00 95 1012.4
20260509105141 50 345 0.0 0.0 0.00 0.00 0.00 95 1012.6
20260509104638 51 344 0.0 0.0 0.00 0.00 0.00 95 1012.3
20260509104134 51 344 0.0 0.0 0.00 0.00 0.00 95 1012.2
20260509103633 51 345 0.0 0.0 0.00 0.00 0.00 95 1012.3
20260509103130 51 346 0.0 0.0 0.00 0.00 0.00 95 1012.0
20260509102628 51 346 0.0 0.0 0.00 0.00 0.00 95 1012.0
20260509102124 51 346 0.0 0.0 0.00 0.00 0.00 95 1012.0
20260509101621 51 345 0.0 0.0 0.00 0.00 0.00 94 1012.0
20260509101118 51 346 0.0 0.0 0.00 0.00 0.00 94 1011.8
20260509100615 51 346 0.0 0.0 0.00 0.00 0.00 94 1012.0
20260509100112 52 345 0.0 0.0 0.00 0.00 0.00 94 1011.8
20260509095608 52 347 0.0 0.0 0.00 0.00 0.00 94 1012.2